This demonstration page uses our WeatherBlox Daily Observations layout. Learn more.

Left ArrowRight Arrow

30.21309, -93.2044

Hourly Observations for December 9, 2022

Temp ( °F °C ) Dew Point ( °F °C ) Humidity (%) Winds ( mph kmh ) Pressure ( in mb ) Visibility ( mi km ) Precip ( " mm )
12:15 am 00:15 Cloudy with Fog 63 17.4 62 16.7 96 96 S 3 6 30.15 1021 0 0 0.00 0.00
12:35 am 00:35 Cloudy with Fog 63 17.3 62 16.6 96 96 S 3 6 30.15 1021 0 0 0.00 0.00
12:55 am 00:55 Cloudy with Fog 63 17.2 62 16.6 96 96 Calm 30.15 1021 0 0 0.00 0.00
1:15 am 01:15 Cloudy with Fog 63 17.3 62 16.7 96 96 S 5 7 30.14 1021 0 0 0.00 0.00
1:35 am 01:35 Cloudy with Fog 66 18.8 65 18.1 96 96 SSW 6 9 30.14 1021 0 0 0.00 0.00
1:55 am 01:55 Cloudy with Fog 66 18.7 65 18.1 96 96 SSW 5 7 30.14 1021 0 0 0.00 0.00
2:15 am 02:15 Cloudy with Fog 66 18.7 65 18.1 96 96 SSW 6 9 30.14 1021 0 0 0.00 0.00
2:35 am 02:35 Cloudy with Fog 66 18.9 65 18.3 96 96 SW 3 6 30.14 1021 0 0 0.00 0.00
2:55 am 02:55 Cloudy with Fog 66 19 65 18.4 96 96 SW 3 6 30.14 1021 0 0 0.00 0.00
3:15 am 03:15 Cloudy with Fog 66 18.8 65 18.2 96 96 Calm 30.14 1021 0 0 0.00 0.00
3:35 am 03:35 Cloudy with Fog 66 18.8 65 18.2 96 96 Calm 30.14 1021 0 0 0.00 0.00
3:55 am 03:55 Cloudy with Fog 66 19.1 65 18.5 96 96 SW 3 6 30.14 1021 0 0 0.00 0.00
4:15 am 04:15 Cloudy with Fog 66 18.9 65 18.3 96 96 Calm 30.14 1021 0 0 0.01 0.25
4:35 am 04:35 Cloudy with Fog 66 19 65 18.4 96 96 Calm 30.14 1021 0 0 0.01 0.25
4:55 am 04:55 Cloudy with Fog 67 19.2 65 18.5 96 96 Calm 30.14 1021 1 1 0.01 0.25
5:15 am 05:15 Cloudy with Fog 66 18.8 65 18.2 96 96 Calm 30.14 1021 0 0 0.00 0.00
5:35 am 05:35 Cloudy with Fog 66 19 64 18 94 94 Calm 30.14 1021 0 0 0.00 0.00
11:53 am 11:53 Mostly Cloudy 73 23 68 20 83 83 Calm 30.16 1021 10 16 0.00 0.00
12:47 pm 12:47 Mostly Cloudy 79 26 66 19 65 65 WSW 6 9 30.12 1020 10 16 0.00 0.00
1:52 pm 13:52 Mostly Cloudy 79 26 64 18 61 61 SW 5 7 30.10 1019 10 16 0.00 0.00
2:45 pm 14:45 Partly Cloudy 79 26 66 19 65 65 SSW 8 13 30.09 1019 10 16 0.00 0.00
3:45 pm 15:45 Mostly Sunny 79 26 64 18 61 61 SSW 9 15 30.08 1019 10 16 0.00 0.00
4:51 pm 16:51 Sunny 75 24 63 17 65 65 SSW 7 11 30.09 1019 10 16 0.00 0.00
5:51 pm 17:51 Clear 70 21 63 17 78 78 SSW 5 7 30.09 1019 10 16 0.00 0.00
6:55 pm 18:55 Clear 66 19 63 17 88 88 S 5 7 30.10 1019 10 16 0.00 0.00
7:55 pm 19:55 Clear with Mist and Fog 64 18 64 18 100 100 S 5 7 30.11 1020 7 11 0.00 0.00
8:55 pm 20:55 Clear with Mist and Fog 64 18 63 17 94 94 S 6 9 30.12 1020 3 5 0.00 0.00
9:49 pm 21:49 Mostly Cloudy with Mist and Fog 64 18 63 17 94 94 S 6 9 30.12 1020 1 2 0.00 0.00
10:15 pm 22:15 Cloudy with Fog 63 17.2 62 16.5 96 96 S 5 7 30.12 1020 0 0 0.00 0.00
10:35 pm 22:35 Cloudy with Fog 63 17 61 16.3 96 96 SSE 5 7 30.12 1020 1 1 0.00 0.00
10:55 pm 22:55 Cloudy with Fog 61 16.3 60 15.7 96 96 S 3 6 30.12 1020 0 0 0.00 0.00
11:15 pm 23:15 Mostly Cloudy with Fog 63 17.3 62 16.7 96 96 S 5 7 30.12 1020 0 0 0.00 0.00
11:35 pm 23:35 Mostly Clear with Fog 64 17.6 63 17 96 96 S 3 6 30.12 1020 1 1 0.00 0.00
11:55 pm 23:55 Mostly Clear with Fog 64 17.7 63 17.1 96 96 Calm 30.12 1020 1 1 0.00 0.00

Powered by AerisWeather